Reading, PA

11:18 AM EDT on March 29, 2017 (GMT -0400)
Reading Regional-Spaatz

Weather History for KRDG - March, 2013

Change the Weather History Date:

Tuesday, March 5, 2013

  Actual Average Record
Temperature  
Mean Temperature 39 °F 37 °F  
Max Temperature 47 °F 47 °F 74 °F (1974)
Min Temperature 31 °F 28 °F 5 °F (1978)
Degree Days  
Heating Degree Days 26 28  
Month to date heating degree days 143 142  
Since 1 July heating degree days 3854 4184  
Cooling Degree Days 0 0  
Month to date cooling degree days 0 0  
Year to date cooling degree days 0 0  
Moisture  
Dew Point 23 °F    
Average Humidity 56    
Maximum Humidity 69    
Minimum Humidity 42    
Precipitation  
Precipitation 0.00 in 0.10 in 1.18 in (1899)
Month to date precipitation T 0.42  
Year to date precipitation 4.94 5.95  
Sea Level Pressure  
Sea Level Pressure 30.01 in    
Wind  
Wind Speed 7 mph (North)    
Max Wind Speed 17 mph    
Max Gust Speed 22 mph    
Visibility 10 miles    
Events      
T = Trace of Precipitation, MM = Missing Value Source: NWS Daily Summary

Daily Weather History Graph

Daily Weather History Graph

Search for Another Location

Airport or City:

Trip Planner

Search our weather history database for the weather conditions in past years. The results will help you decide how hot, cold, wet, or windy it might be!

Date:

Astronomy

Mar. 05, 2013 Rise Set
Actual Time 6:30 AM EST 6:00 PM EST
Civil Twilight 6:03 AM EST 6:27 PM EST
Nautical Twilight 5:32 AM EST 6:58 PM EST
Astronomical Twilight 5:00 AM EST 7:30 PM EST
Moon 1:41 AM EST (3/5) 11:36 AM EST (3/5)
Length of Visible Light 12h 23m
Length of Day
11h 29m
Last Quarter, 41% of the Moon is Illuminated
Mar 5
Last Quarter
Mar 11
New
Mar 19
First Quarter
Mar 27
Full
Apr 3
Last Quarter

Hourly Weather History & Observations

Time (EST) Temp. Windchill Dew Point Humidity Pressure Visibility Wind Dir Wind Speed Gust Speed Precip Events Conditions
12:54 AM 32.0 °F 23.6 °F 19.9 °F 61% 30.02 in 10.0 mi NW 10.4 mph - N/A   Overcast
2:54 AM 32.0 °F 23.6 °F 21.0 °F 64% 30.03 in 10.0 mi NW 10.4 mph - N/A   Overcast
3:21 AM 32.0 °F 22.5 °F 21.2 °F 64% 30.01 in 10.0 mi NW 12.7 mph - N/A   Overcast
3:54 AM 32.0 °F 23.0 °F 21.0 °F 64% 30.04 in 10.0 mi NW 11.5 mph - N/A   Overcast
4:54 AM 32.0 °F 20.8 °F 21.0 °F 64% 30.05 in 10.0 mi NW 17.3 mph - N/A   Overcast
5:54 AM 30.9 °F 22.2 °F 21.0 °F 67% 30.05 in 10.0 mi NW 10.4 mph - N/A   Overcast
6:54 AM 32.0 °F 24.2 °F 21.0 °F 64% 30.06 in 10.0 mi NNW 9.2 mph - N/A   Mostly Cloudy
8:54 AM 35.1 °F 27.4 °F 21.9 °F 59% 30.07 in 10.0 mi North 10.4 mph - N/A   Mostly Cloudy
9:01 AM 35.6 °F 29.2 °F 21.2 °F 56% 30.04 in 10.0 mi North 8.1 mph - N/A   Partly Cloudy
9:20 AM 33.8 °F 27.0 °F 21.2 °F 60% 30.05 in 10.0 mi NNW 8.1 mph - N/A   Mostly Cloudy
9:47 AM 35.6 °F 29.2 °F 21.2 °F 56% 30.03 in 10.0 mi North 8.1 mph - N/A   Scattered Clouds
9:54 AM 36.0 °F 30.3 °F 21.9 °F 57% 30.06 in 10.0 mi North 6.9 mph - N/A   Partly Cloudy
10:54 AM 39.0 °F 32.3 °F 23.0 °F 53% 30.05 in 10.0 mi NNW 10.4 mph - N/A   Clear
11:54 AM 42.1 °F 38.4 °F 24.1 °F 49% 30.04 in 10.0 mi NNW 5.8 mph - N/A   Partly Cloudy
12:54 PM 43.0 °F 41.3 °F 24.1 °F 47% 30.02 in 10.0 mi Variable 3.5 mph - N/A   Clear
1:54 PM 46.0 °F 44.8 °F 24.1 °F 42% 30.01 in 10.0 mi Variable 3.5 mph - N/A   Partly Cloudy
2:54 PM 46.0 °F 43.9 °F 24.1 °F 42% 29.99 in 10.0 mi NW 4.6 mph - N/A   Clear
3:54 PM 46.0 °F 41.9 °F 25.0 °F 44% 29.96 in 10.0 mi North 8.1 mph - N/A   Clear
4:54 PM 46.0 °F 41.9 °F 25.0 °F 44% 29.96 in 10.0 mi NNE 8.1 mph - N/A   Clear
5:54 PM 44.1 °F 42.5 °F 24.1 °F 45% 29.98 in 10.0 mi NE 3.5 mph - N/A   Clear
6:54 PM 43.0 °F - 24.1 °F 47% 29.99 in 10.0 mi Calm Calm - N/A   Clear
7:54 PM 39.9 °F 37.8 °F 25.0 °F 55% 29.96 in 10.0 mi East 3.5 mph - N/A   Clear
8:54 PM 37.9 °F 35.5 °F 25.0 °F 60% 29.97 in 10.0 mi East 3.5 mph - N/A   Clear
9:54 PM 41.0 °F 35.2 °F 25.0 °F 53% 29.95 in 10.0 mi SE 9.2 mph - N/A   Clear
10:54 PM 39.0 °F 34.0 °F 26.1 °F 60% 29.94 in 10.0 mi ESE 6.9 mph - N/A   Clear
11:54 PM 37.0 °F 31.6 °F 27.0 °F 67% 29.93 in 10.0 mi East 6.9 mph - N/A   Clear